Regional Weather Roundup
Issued by NWS Tiyan, Guam

Home | Current Version | Previous Version | Text Only | Print | Product List | Glossary On
Versions: 1 2 3 4 5 6 7 8 9 10 11 12 13 14 15 16 17 18 19 20 21 22 23 24 25 26 27 28 29 30 31 32 33 34 35 36 37 38 39 40 41 42 43 44 45 46 47 48 49 50
000
ASGM40 PGUM 270910
RWRGUM
WEATHER ROUNDUP FOR THE MARIANAS
NATIONAL WEATHER SERVICE TIYAN GU
700 PM CHST FRI APR 27 2018

GUZ001>004-271000-
MARIANA ISLANDS-

CITY           SKY/WX    TMP DP  RH WIND       PRES   REMARKS
GUAM AIRPORT   MOCLDY    84  81  89 E10       29.86R HX  98
ANDERSEN AFB   MOCLDY    81  77  89 E16       29.87R
ROTA AIRPORT   MOCLDY    81  75  83 E12       29.87R
TINIAN AP      MOCLDY    79  75  89 E7        29.86R
SAIPAN AP      MOCLDY    82  79  89 E14       29.87R HX  93

$$




USA.gov is the U.S. government's official web portal to all federal, state and local government web resources and services.